Regional Weather Roundup
Issued by NWS Albany, NY

Home | Current Version | Previous Version | Graphics & Text | Print | Product List | Glossary Off
Versions: 1 2 3 4 5 6 7 8 9 10 11 12 13 14 15 16 17 18 19 20 21 22 23 24 25 26 27 28 29 30 31 32 33 34 35 36 37 38 39 40 41 42 43 44 45 46 47 48 49 50

000
ASUS41 KALY 250910
RWRALY

NEW YORK STATE HOURLY WEATHER ROUNDUP
NATIONAL WEATHER SERVICE ALBANY NY
500 AM EDT WED MAY 25 2016

NOTE: "FAIR" INDICATES FEW OR NO CLOUDS BELOW 12,000 FEET WITH NO
SIGNIFICANT WEATHER AND/OR NO OBSTRUCTIONS TO VISIBILITY.

NYZ032-033-038>043-046>054-057>066-NYZ062>081-082-084-251000-
EAST


CITY           SKY/WX    TMP DP  RH WIND       PRES   REMARKS
ALBANY         PTCLDY    53  52  96 S5        30.00R FOG
GLENS FALLS    FOG       55  53  93 S5        29.98R VSB 3/4
POUGHKEEPSIE   CLEAR     51  48  89 CALM      30.01R
NEWBURGH       CLEAR     55  54  94 W8        30.03R
MONTGOMERY     CLEAR     46  45  96 SW6       30.03R
WHITE PLAINS   CLEAR     52  51  97 W3        30.01S
ISLIP          PTCLDY    55  54  96 CALM      30.01R FOG
NEW YORK CITY  CLEAR     63  56  78 CALM      30.02R
CENTRAL PARK   CLEAR     61  51  70 W3        30.05R
$$

NYZ005>009-017-018-044>046-055-056-251000-
CENTRAL


CITY           SKY/WX    TMP DP  RH WIND       PRES   REMARKS
FULTON         PTCLDY    50  45  83 CALM      30.00R
SYRACUSE       PTCLDY    48  44  86 CALM      30.00R
ROME           PTCLDY    46  41  82 CALM      30.03R
ELMIRA         CLEAR     44  40  85 W3        30.06R
BINGHAMTON     CLEAR     55  40  56 SW7       30.05S
MONTICELLO     CLEAR     46  45  93 CALM      30.07R
$$

NYZ026>034-041>043-087-251000-
NORTH


CITY           SKY/WX    TMP DP  RH WIND       PRES   REMARKS
WATERTOWN      CLEAR     55  42  61 S6        29.98S
FORT DRUM      NOT AVBL
MASSENA        PTCLDY    59  44  57 SW9       29.93R
SARANAC LAKE   CLEAR     42  37  82 SW3       29.98R
PLATTSBURGH    CLEAR     51  50  96 CALM      29.91R
$$

NYZ001>004-010>016-019>021-085-251000-
WEST


CITY           SKY/WX    TMP DP  RH WIND       PRES   REMARKS
BUFFALO        CLEAR     57  39  51 S6        30.01S
DUNKIRK        CLEAR     65  39  38 S10       30.04R
JAMESTOWN      CLEAR     54  36  50 S5        30.09S
WELLSVILLE     CLEAR     59  31  34 W7        30.11R
ROCHESTER      MOCLDY    56  41  57 SW9       30.01R
PENN YAN       CLEAR     62  37  39 SW9       30.04R
$$

             KEY
       WCI = WIND CHILL INDEX
       VSB = VISIBILITY
       HX  = HEAT INDEX
$$



USA.gov is the U.S. government's official web portal to all federal, state and local government web resources and services.